RH
99 98 98 98 98 86 83 95 100 100 100 99 99 95 83 68 67 64 53 48 47 48 44 47 49 44 36 37 44 51 39 41 54 51 36 35 36 37 38 57 56 52 53 49
98 98 97 98 98 96 99 99 98 98 100 99 96 78 75 90 88 72 67 63 52 46 52 62 48 45 35 40 43 42 40 50 66 56 54 48 51 43 41 37 42 55 74 46
98 86 87 98 100 100 99 99 100 97 100 100 99 98 96 99 98 96 96 94 82 68 66 52 55 53 59 48 42 47 41 51 55 60 47 45 58 52 45 46 62 58 52 45
91 83 84 79 98 100 100 99 99 99 100 100 100 98 100 100 99 96 97 94 93 98 96 91 79 86 90 72 76 76 82 100 91 69 60 60 73 60 50 57 52 68 53 46
88 83 92 86 87 99 100 99 97 99 99 100 100 100 99 100 98 99 100 100 100 100 100 100 100 99 98 98 96 91 96 100 99 96 76 71 76 62 60 65 74 74 55 47
90 92 88 91 91 93 99 100 99 99 99 98 100 100 99 100 97 98 98 96 100 100 96 97 98 99 100 97 98 100 100 100 98 83 54 68 84 54 46 45 43 54 62 46
83 93 96 97 94 86 92 98 100 100 100 94 84 87 88 98 96 100 97 99 98 89 97 98 99 100 99 97 92 90 100 100 99 92 89 93 39 31 30 37 35 36 40 37
76 87 99 100 98 95 99 99 100 100 100 85 74 72 72 81 89 99 99 98 97 98 100 100 100 99 100 98 91 79 87 100 97 94 87 52 46 40 39 44 36 28 30 26
74 82 92 98 100 100 100 99 100 99 98 85 79 82 71 82 86 96 98 95 91 99 100 100 96 89 68 68 80 67 68 95 98 97 94 88 39 35 39 37 46 26 28 29
72 79 93 95 100 100 100 99 100 99 99 98 85 79 94 80 68 77 69 81 99 98 100 99 91 89 72 88 64 78 92 97 96 91 93 84 39 36 41 55 38 38 37 36
84 89 98 97 97 99 99 99 99 99 98 93 77 79 82 72 74 81 76 85 89 100 99 95 86 94 82 76 51 43 57 72 70 89 95 90 46 46 48 31 38 40 39 39
86 88 91 99 99 100 100 99 99 97 97 78 65 62 63 77 77 83 97 94 92 98 100 87 91 88 96 91 91 47 73 46 50 52 52 46 49 42 43 43 44 40 38 38
90 93 98 98 99 99 98 92 90 100 98 97 98 75 56 58 59 68 98 98 92 96 87 98 99 96 99 95 85 66 56 46 51 67 55 53 48 50 44 41 43 44 39 38
90 92 98 99 99 98 98 97 84 83 98 98 73 70 68 60 63 67 76 76 87 100 100 100 99 94 86 84 86 88 68 67 74 65 54 53 52 51 48 48 48 45 43 42
86 89 98 98 98 99 98 95 79 73 68 80 72 70 47 37 48 67 78 98 100 100 98 99 95 83 90 98 90 89 58 56 74 68 51 48 35 37 43 48 47 43 45 43
68 80 90 97 99 98 98 97 81 73 81 90 79 66 63 62 68 79 99 91 100 100 99 98 99 78 87 84 83 52 47 56 50 50 46 42 41 42 42 46 45 44 46 46
64 66 79 92 98 98 97 88 67 63 96 97 89 79 88 81 98 100 100 100 99 99 98 98 95 85 98 97 92 58 55 57 56 53 52 51 50 50 51 50 46 44 44 43
66 67 68 76 96 99 98 94 79 75 97 88 87 67 81 84 97 92 100 100 100 98 90 95 92 89 94 92 62 64 66 62 59 61 60 57 54 52 52 49 46 46 45 44
67 65 69 83 98 98 93 82 87 88 80 89 84 71 65 87 91 96 99 97 94 96 87 78 82 85 87 68 70 72 77 77 72 62 62 60 55 50 47 44 43 47 48 48
76 86 95 98 90 94 94 99 98 99 99 97 85 66 79 86 81 82 79 91 85 91 72 90 92 75 64 85 86 78 74 75 74 68 62 58 55 51 48 48 47 50 51 54
99 98 99 99 99 100 98 98 97 97 94 94 72 68 70 77 79 73 77 80 78 89 82 84 76 71 78 77 77 74 70 69 72 71 59 55 58 55 51 51 50 51 53 57
98 95 97 98 98 98 96 94 94 89 71 84 84 87 84 95 92 78 87 88 88 91 78 86 80 80 91 91 80 80 78 78 76 69 60 56 52 53 53 55 57 57 57 56
98 94 96 98 97 95 91 92 89 87 83 92 95 89 92 100 100 90 91 93 88 71 87 76 79 82 96 88 78 75 74 73 69 66 63 60 58 57 56 54 53 51 49 46
97 96 94 91 93 88 81 77 81 95 91 92 89 90 90 97 93 93 93 89 77 89 88 78 76 92 100 100 97 83 77 70 66 62 60 58 56 55 53 52 51 50 51 52
93 83 90 92 90 96 99 100 95 100 100 98 96 96 96 91 93 89 90 91 88 78 76 71 82 98 100 99 94 94 93 88 84 81 77 73 71 68 66 66 65 65 65 64
95 93 88 85 87 87 92 95 95 95 96 96 96 91 92 90 91 91 87 86 83 78 74 82 92 95 100 95 88 84 81 79 77 77 78 79 80 81 80 80 77 75 73 71
89 90 97 96 95 94 97 98 96 95 96 92 92 92 89 90 89 88 81 83 80 85 89 92 95 88 78 73 71 69 68 67 66 66 66 66 67 67 66 66 63 64 63 63
Wind_Speed
13 17 11 10 12 12 11 8 3 5 25 14 7 17 7 22 14 34 22 19 21 23 21 19 17 22 17 18 16 11 11 5 9 12 4 8 14 14 17 7 9 7 9 11
15 15 13 11 10 8 7 4 5 4 21 5 11 13 17 5 4 12 14 23 20 23 24 21 23 25 23 17 17 14 12 8 7 6 2 3 8 14 14 18 14 21 7 6
13 10 11 14 9 8 4 2 2 6 7 4 4 6 3 5 2 1 4 4 6 6 19 23 14 15 2 11 19 5 18 12 16 16 3 4 6 15 19 20 15 17 23 27
17 15 13 13 10 7 6 5 3 3 2 2 3 1 3 4 2 6 6 2 2 3 6 6 16 1 3 2 5 3 2 6 9 16 16 11 10 12 15 19 20 17 20 22
21 20 16 15 17 13 12 5 3 3 3 3 2 4 3 4 3 2 1 2 2 2 3 1 1 2 2 2 2 6 4 2 3 4 10 11 18 20 19 20 21 21 25 30
23 22 22 18 15 14 11 9 13 6 4 2 3 3 2 2 3 6 7 4 3 4 6 8 5 6 8 6 3 5 4 3 3 6 6 10 14 19 23 22 21 20 22 25
24 26 24 23 20 17 17 15 8 7 3 7 6 5 7 5 7 4 5 9 7 1 5 2 9 14 16 16 16 16 3 4 3 4 3 8 9 3 7 12 16 21 22 20
24 26 27 26 21 20 19 19 16 4 2 7 7 12 12 13 13 12 7 11 16 11 6 2 4 4 4 10 15 18 14 5 5 4 9 13 17 7 6 8 14 14 16 17
25 26 26 26 26 25 23 21 20 10 2 6 10 7 10 5 4 3 7 11 10 8 3 4 5 7 5 5 4 11 17 15 9 5 5 6 2 3 5 4 12 13 18 16
24 25 26 24 28 29 28 23 20 16 6 5 7 5 3 4 6 5 10 5 4 16 3 4 6 7 6 7 7 6 5 5 16 15 11 6 12 5 10 8 10 4 2 7
21 23 25 24 27 28 25 17 23 17 5 7 11 13 12 11 9 6 3 4 6 3 4 4 5 5 6 6 11 12 11 8 7 5 6 10 13 9 10 7 1 4 5 7
20 21 24 26 26 28 22 17 16 9 10 9 13 17 18 17 19 18 7 5 4 4 3 3 3 6 5 5 4 12 8 11 8 9 4 3 7 7 9 15 8 4 7 8
17 19 23 19 20 17 17 14 13 14 15 18 22 24 21 20 23 26 13 13 14 12 16 3 2 4 5 4 8 13 5 8 7 4 11 16 14 16 18 18 18 12 13 10
16 16 16 17 17 19 21 19 15 15 5 3 8 10 15 14 14 19 26 38 25 16 11 6 3 3 4 4 4 6 6 8 10 11 16 9 15 19 23 24 27 26 21 19
17 14 14 18 16 13 14 15 16 15 10 3 8 16 25 29 26 21 20 25 29 26 10 4 5 6 7 4 3 6 13 12 8 8 13 12 18 11 13 20 22 25 23 20
18 17 15 14 16 17 13 6 17 19 18 3 4 7 12 16 16 20 20 21 20 17 4 6 7 17 7 6 8 18 24 25 25 19 25 17 15 14 15 16 17 19 17 16
17 17 17 17 16 17 13 5 5 12 18 4 4 4 6 7 10 8 14 18 14 11 5 5 5 7 6 2 3 8 8 10 15 18 17 16 19 12 12 13 15 13 12 14
17 17 16 16 17 16 16 16 9 7 9 4 3 4 3 6 4 4 6 5 7 8 6 5 4 3 4 4 11 5 6 10 12 12 14 15 13 11 11 12 11 12 12 13
17 15 13 13 16 13 19 18 17 15 9 4 6 5 5 5 4 2 2 3 3 4 4 4 4 4 6 2 5 7 9 5 9 11 12 12 11 10 9 9 10 10 10 11
19 15 10 7 9 13 10 12 9 9 13 12 5 9 5 9 8 5 3 4 3 3 3 3 4 5 4 3 6 9 12 11 7 7 7 8 8 8 9 9 9 9 10 12
25 14 10 10 15 18 11 7 7 7 4 9 9 18 11 9 5 5 6 2 3 3 3 3 4 4 3 10 10 10 11 11 9 9 9 8 7 8 8 7 8 9 10 12
21 12 14 16 6 4 4 4 3 4 5 5 4 4 7 4 5 4 5 3 3 4 2 3 3 3 7 10 11 11 9 5 3 5 6 5 4 6 7 8 8 10 11 12
19 6 6 5 2 5 5 7 4 4 4 6 5 3 5 4 6 5 3 5 3 2 3 3 2 5 7 7 9 9 9 5 3 3 3 3 4 6 6 7 8 8 9 10
4 5 4 4 5 4 0 2 2 3 0 4 6 3 3 2 3 0 3 2 2 3 3 3 2 5 6 4 5 4 5 6 6 6 5 4 4 4 5 5 6 7 8 9
2 0 3 3 2 2 1 1 1 2 1 5 3 2 3 1 2 1 1 3 4 3 1 2 2 2 4 5 5 6 6 6 5 5 5 5 6 7 8 8 10 11 13 14
4 5 2 2 2 2 1 2 2 2 2 3 1 2 2 3 1 3 4 2 2 2 1 2 3 4 7 9 11 12 12 13 13 13 14 16 16 17 18 19 20 21 22 23
4 4 5 3 4 4 2 3 3 2 1 0 0 3 1 1 2 2 1 2 2 3 4 5 8 11 15 17 19 19 19 20 21 21 21 22 23 24 26 28 27 28 30 31
Wind_Direction
272 259 257 283 284 296 265 258 254 208 194 189 223 230 223 241 236 216 228 240 239 242 248 242 239 245 236 180 166 181 203 232 247 223 205 237 237 220 203 211 214 228 267 269
269 273 287 262 267 284 250 226 261 246 195 231 221 230 229 224 230 210 225 232 226 230 237 251 246 240 241 198 180 194 167 221 245 243 195 210 229 219 236 234 250 247 222 235
261 273 287 256 261 234 248 214 251 239 226 283 336 316 242 214 98 221 322 321 279 232 244 232 249 245 51 203 207 234 173 228 217 239 266 104 207 219 221 229 232 247 242 263
251 263 261 282 233 237 229 215 238 239 228 234 238 287 328 328 286 12 0 356 359 347 228 238 245 243 135 94 163 111 112 240 241 260 273 280 247 254 225 227 239 238 262 261
253 251 255 257 252 241 252 214 206 218 276 281 248 184 218 230 228 196 307 281 4 33 282 351 20 270 167 204 174 180 154 250 197 255 239 245 256 250 247 238 240 250 264 270
251 249 252 249 246 256 234 234 234 235 213 202 202 216 198 264 219 218 228 242 241 224 243 261 242 254 284 288 268 187 192 190 206 249 246 272 261 246 245 248 238 238 250 260
249 246 244 244 243 247 250 237 216 207 229 219 224 217 233 249 249 286 282 294 254 78 121 204 247 244 241 240 240 234 214 189 217 260 208 232 272 339 274 242 237 238 248 259
247 245 245 244 240 244 238 241 236 236 260 263 265 258 268 279 272 262 240 246 243 296 324 246 247 207 220 221 228 226 212 195 237 238 228 275 286 246 209 210 245 248 261 270
248 245 239 240 240 238 235 245 232 225 219 225 252 281 276 275 284 285 230 269 244 227 229 223 223 232 225 192 222 228 222 216 223 202 227 241 307 87 99 128 259 253 249 252
247 242 237 238 239 235 225 230 216 223 214 245 251 242 267 266 282 276 287 279 221 207 202 233 244 240 208 201 215 176 193 214 227 233 247 242 246 186 146 247 279 141 192 234
244 240 233 242 245 231 221 223 228 224 197 248 262 255 248 258 254 257 271 282 225 243 229 231 227 241 215 222 234 216 194 191 215 232 250 248 184 131 210 238 136 200 231 219
247 245 245 238 230 234 218 216 213 236 225 244 267 262 251 253 257 272 266 271 289 284 297 242 305 254 214 215 230 237 251 231 220 215 209 93 185 251 220 264 289 254 220 215
245 243 247 237 222 208 202 215 212 206 233 263 265 262 271 262 253 251 254 252 243 245 239 298 285 296 333 242 231 250 275 262 244 199 247 250 255 258 259 250 260 258 239 241
247 248 237 220 215 200 197 206 212 202 182 263 272 273 264 276 276 255 245 249 250 257 247 234 236 253 239 270 297 253 219 165 227 239 256 274 271 256 252 255 254 254 246 247
243 247 231 214 209 208 211 219 223 223 204 247 282 284 281 278 271 259 243 239 249 253 246 217 248 250 244 214 248 225 212 221 205 228 230 189 262 265 260 253 246 261 256 244
237 238 243 233 219 215 203 224 241 233 225 229 271 279 276 267 260 248 235 228 246 248 254 223 215 253 258 249 241 248 254 235 226 234 260 280 279 266 257 267 269 262 247 240
236 233 230 235 234 206 187 200 262 201 199 209 254 258 274 274 248 256 248 241 240 237 248 228 241 250 207 271 293 271 324 298 248 242 264 263 265 258 267 252 251 244 239 232
233 232 227 223 231 223 218 218 205 174 166 227 259 252 247 212 211 225 210 212 207 231 253 257 233 193 212 252 245 299 303 295 304 284 256 255 258 263 256 245 243 235 225 217
224 220 219 213 214 213 225 228 227 236 213 227 228 238 263 178 212 252 223 229 235 199 230 216 197 195 225 265 357 351 342 327 306 299 281 270 258 248 248 228 218 209 203 200
210 200 194 201 213 213 193 187 206 217 210 214 242 229 248 181 180 181 213 199 246 240 200 156 220 251 206 37 322 302 298 296 294 279 284 280 256 240 233 223 205 198 195 188
193 180 179 188 171 171 187 199 198 177 214 209 234 225 225 218 205 203 210 218 217 239 143 240 211 244 64 348 340 332 316 292 269 248 272 280 259 234 212 201 189 184 180 174
186 170 138 152 175 157 205 197 160 217 230 179 204 210 208 177 189 209 184 232 202 243 126 225 243 78 6 353 357 359 355 338 267 252 270 247 236 201 192 184 177 171 175 175
141 123 147 168 162 203 206 192 203 219 192 185 174 177 176 167 196 219 210 224 215 124 207 228 37 17 354 1 16 23 30 43 68 73 91 107 139 155 164 174 175 179 182 187
137 147 151 214 179 241 326 344 51 72 82 177 178 147 202 157 192 114 236 84 218 230 232 225 64 13 6 22 25 32 37 51 60 68 79 96 121 148 171 186 196 206 211 218
114 329 203 201 65 48 27 28 122 21 188 168 144 135 190 149 193 237 107 192 238 241 317 54 50 7 4 356 346 335 326 322 317 307 295 286 279 272 265 263 259 259 258 259
66 53 114 81 200 110 72 20 70 348 168 171 131 154 202 185 282 200 215 237 226 76 31 346 315 304 303 306 307 306 304 300 295 290 286 282 279 277 275 271 268 269 271 270
61 60 50 33 42 46 45 9 337 317 260 205 330 224 157 100 215 233 275 332 27 358 323 306 299 298 302 302 300 300 298 294 291 288 284 282 280 277 275 274 274 274 274 274